MST,Max TemperatureF,Mean TemperatureF,Min TemperatureF,Max Dew PointF,MeanDew PointF,Min DewpointF,Max Humidity, Mean Humidity, Min Humidity, Max Sea Level PressureIn, Mean Sea Level PressureIn, Min Sea Level PressureIn, Max VisibilityMiles, Mean VisibilityMiles, Min VisibilityMiles, Max Wind SpeedMPH, Mean Wind SpeedMPH, Max Gust SpeedMPH,PrecipitationIn, CloudCover, Events, WindDirDegrees
2013-1-1,26,14,3,16,10,0,100,80,59,30.14,30.08,30.02,10,9,1,9,3,,0.00,1,,145
2013-1-2,33,22,12,16,8,0,85,55,39,30.28,30.17,30.11,10,10,10,24,6,28,0.00,3,,356
2013-1-3,33,18,3,12,6,-8,92,55,32,30.29,30.23,30.17,10,10,10,8,3,,0.00,0,,153
2013-1-4,44,28,12,18,10,1,73,53,27,30.19,30.10,30.02,10,10,10,8,1,,0.00,0,,75
2013-1-5,41,26,12,18,11,0,73,56,33,30.27,30.19,30.05,10,10,10,12,4,,0.00,0,,175
2013-1-6,42,25,8,16,10,1,92,60,27,30.25,30.09,29.93,10,10,10,7,2,,0.00,0,,10
2013-1-7,51,37,23,21,17,10,80,55,24,30.01,29.92,29.82,10,10,10,13,4,,0.00,0,,20
2013-1-8,53,37,21,27,20,16,80,59,26,30.22,29.94,29.78,10,10,10,9,5,,0.00,0,,110
2013-1-9,51,35,19,27,20,12,86,60,30,30.31,30.17,30.01,10,10,10,10,4,,0.00,0,,42
2013-1-10,37,27,17,23,19,10,86,70,56,30.00,29.70,29.44,10,10,10,9,3,,0.00,0,,360
2013-1-11,35,20,5,28,15,1,93,80,52,29.80,29.47,29.28,10,10,1,20,7,28,0.00,4,,60
2013-1-12,14,7,0,9,4,-6,100,83,73,30.00,29.93,29.80,10,9,2,10,5,,0.00,7,,149
2013-1-13,15,8,0,5,1,-8,100,79,53,30.09,30.04,29.98,10,10,9,7,1,,0.00,2,,115
2013-1-14,15,8,0,3,-1,-6,92,74,53,30.14,30.08,30.03,10,10,6,8,3,,0.00,2,,62
2013-1-15,33,16,-2,16,5,-11,92,62,37,30.10,30.07,30.03,10,10,10,9,4,,0.00,6,,171
2013-1-16,53,38,24,27,20,14,69,53,32,30.37,30.20,30.10,10,10,10,13,4,,0.00,1,,163
2013-1-17,50,34,17,23,18,9,80,60,32,30.46,30.34,30.21,10,10,10,9,5,,0.00,0,,51
2013-1-18,59,38,17,23,12,3,86,43,14,30.20,30.11,30.04,10,10,10,20,4,20,0.00,0,,192
2013-1-19,57,42,28,16,11,5,51,30,18,30.25,30.17,30.07,10,10,10,16,8,24,0.00,0,,25
2013-1-20,44,30,17,16,13,9,80,49,27,30.27,30.21,30.13,10,10,10,17,5,24,0.00,0,,76
2013-1-21,53,32,12,21,13,5,92,53,22,30.22,30.12,30.04,10,10,10,9,4,,0.00,0,,126
2013-1-22,57,39,21,19,14,9,74,44,21,30.17,30.09,30.01,10,10,10,9,4,,0.00,0,,67
2013-1-23,60,40,21,16,11,5,55,32,14,30.17,30.14,30.10,10,10,10,12,3,,0.00,0,,28
2013-1-24,62,40,19,27,18,12,74,43,15,30.15,30.05,29.97,10,10,10,28,6,34,0.00,0,,179
2013-1-25,55,40,26,28,25,19,80,56,33,30.18,30.12,30.06,10,10,10,12,5,17,0.00,0,,24
2013-1-26,50,37,24,30,26,21,86,61,40,30.06,29.93,29.76,10,10,10,9,3,,0.00,3,,42
2013-1-27,57,44,30,36,30,23,86,63,41,29.78,29.74,29.70,10,10,10,13,4,17,0.00,3,,132
2013-1-28,46,34,23,30,24,16,93,72,52,29.74,29.67,29.56,10,10,2,25,6,31,0.00,3,,43
2013-1-29,33,24,14,21,15,7,93,71,35,29.92,29.76,29.67,10,9,2,24,7,29,0.01,4,,23
2013-1-30,33,20,8,18,11,3,92,66,41,29.92,29.84,29.79,10,10,10,12,6,,0.00,4,,147
2013-1-31,42,30,19,25,19,14,100,67,42,30.14,30.04,29.85,10,10,10,20,8,22,0.00,2,,123